Back to catalog

STARLINK-36382

AliveCommunicationsSSO
NORAD 67807·PAYLOAD·🇺🇸 United States

Launched Feb 15, 2026 from Vandenberg Space Force Base

Loading…

Next Passes (next 24 hours)

TLE

FreshSource: CelesTrak SupGP

Epoch: Sep 14, 2026, 14:25 UTC

1 67807C 26032L   26257.60118056 -.00061085  00000+0 -18968-2 0  2572
2 67807  97.2850  84.0733 0001644  86.5418 146.7932 15.33460654    13

Track STARLINK-36382 in real time with AllMySat

Download on the App Store